www.pogodaiklimat.ru
ПОГОДА в Атланте
Время
и дата
23:53 20.04
00:53 21.04
01:53 21.04
02:53 21.04
03:53 21.04
04:53 21.04
05:53 21.04
06:53 21.04
07:53 21.04
08:53 21.04
09:53 21.04
10:53 21.04
11:53 21.04
12:53 21.04
13:53 21.04
14:53 21.04
15:53 21.04
16:53 21.04
17:53 21.04
18:53 21.04
19:53 21.04
20:53 21.04
21:53 21.04
22:53 21.04
23:53 21.04
00:53 22.04
01:53 22.04
02:53 22.04
03:53 22.04
04:53 22.04
05:53 22.04
06:53 22.04
07:53 22.04
08:53 22.04
09:53 22.04
10:53 22.04
11:53 22.04
12:53 22.04
13:53 22.04
14:53 22.04
15:53 22.04
16:53 22.04
17:53 22.04
18:53 22.04
19:53 22.04
20:53 22.04
21:53 22.04
22:53 22.04
Ветер
(напр.,м/с)
Видим. Явления Облачность Т
(С)
Тd
(С)
f
(%)
Тe
(С)
Тes
(С)
Комфортность P
(гПа)
Po
(гПа)
Тmin
(С)
Tmax
(С)
R
(мм)
R24
(мм)
S
(см)
Ю 1 16 км 2/0 2400 м
[Ac]
+13.3 +7.8 69 +13 +13 1013.2 977.6
ЮЗ 1 16 км 5/0 2400 м
[Ac]
+12.8 +7.8 72 +12 +12 1012.8 977.3 +11.7 +18.9
З 1 16 км 2/0 2250 м
[Ac]
+13.9 +7.8 67 +13 +13 1012.6 977.0
ЮЗ 1 16 км ясно +12.8 +6.7 66 +12 +12 1012.1 976.6
З 1 16 км ясно +11.1 +6.7 74 +10 +10 1012.2 976.6
З 2 16 км ясно +12.8 +6.1 64 +11 +11 1012.4 977.0
З 2 16 км ясно +11.7 +6.1 68 +10 +10 1013.2 977.6
СЗ 3
{6}
16 км ясно +10.6 +5.6 71 +7 +7 1014.5 978.6 +10.6 +14.4
СЗ 3
{4}
16 км ясно +11.1 +3.9 61 +8 +9 1015.3 979.3
СЗ 3
{6}
16 км ясно +12.2 +3.9 57 +10 +11 1015.7 979.6
СЗ 4
{6}
16 км ясно +12.8 +3.9 55 +10 +12 1016.3 980.2
З 4
{6}
16 км ясно +12.8 +2.8 51 +10 +10 1017.2 980.9
СЗ 3
{6}
16 км ясно +12.2 +2.2 50 +10 +14 1017.5 981.2
СЗ 4
{5}
16 км ясно +13.3 +1.7 45 +11 +14 1017.3 981.2 +10.6 +13.3
СЗ 4
{6}
16 км ясно +12.8 0.0 41 +10 +14 1017.4 981.2
СЗ 4
{6}
16 км ясно +12.8 -1.1 38 +10 +12 1017.6 981.2
СЗ 3
{4}
16 км ясно +12.8 -1.1 38 +10 +14 1017.6 981.2
СЗ 4
{5}
16 км ясно +12.2 -2.2 37 +9 +11 1017.7 981.5
СЗ 4
{5}
16 км ясно +10.6 -3.3 38 +7 +8 1018.3 981.9
С 3
{4}
16 км ясно +9.4 -3.3 41 +6 +6 1019.1 982.5 +9.4 +13.3
СЗ 2 16 км ясно +7.8 -3.9 43 +5 +5 1020.3 983.5
СЗ 3
{4}
16 км ясно +7.2 -4.4 43 +4 +4 1021.0 984.2
С 2 16 км ясно +6.1 -4.4 47 +3 +3 1021.8 984.8
СЗ 2 16 км ясно +5.0 -3.9 53 +1 +1 1022.5 985.5
С 1 16 км ясно +3.3 -3.3 62 +1 +1 1022.9 985.8
С 1 16 км ясно +2.8 -3.3 64 0 0 1022.3 985.1 +2.8 +9.4
С 1 16 км ясно +2.2 -2.8 69 -1 -1 1022.4 985.1
штиль 0 16 км ясно +1.7 -2.2 75 +1 +1 1022.6 985.5
штиль 0 16 км ясно 0.0 -2.2 85 -1 -1 1022.8 985.5
штиль 0 16 км ясно 0.0 -2.2 85 -1 -1 1023.2 985.8
штиль 0 16 км ясно -0.6 -2.2 89 -2 -2 1023.1 985.5
штиль 0 16 км ясно +3.3 -0.6 76 +2 +2 1023.9 986.4 -0.6 +3.3
С 1 16 км ясно +7.2 -2.2 51 +6 +7 1024.6 987.4
С 1 16 км ясно +9.4 -5.0 36 +8 +11 1024.9 987.7
СВ 1 16 км ясно +11.1 -5.0 32 +10 +16 1025.0 987.7
З 1 16 км ясно +12.8 -5.0 29 +13 +25 опасность
простуды
1024.6 987.4
З 1
{4}
16 км ясно +13.3 -5.0 28 +13 +26 опасность
простуды
1023.9 986.8
СЗ 1
{4}
16 км ясно +14.4 -3.9 28 +14 +30 опасность
простуды
1023.2 986.1 +3.3 +15.0
З 2 16 км ясно +15.0 -3.3 28 +14 +24 1022.5 985.5
СЗ 2
{4}
16 км ясно +16.1 -3.3 26 +16 +27 1021.9 984.8
СЗ 2
{4}
16 км ясно +16.1 -2.8 27 +15 +22 1021.3 984.2
СЗ 1
{4}
16 км ясно +15.6 -3.3 27 +15 +23 1021.0 983.8
З 2 16 км ясно +15.0 -2.2 31 +14 +17 1021.0 983.8
З 1 16 км ясно +13.3 -1.7 35 +13 +14 1020.4 983.5 +13.3 +16.7
ЮЗ 1 16 км ясно +10.6 -0.6 46 +10 +10 1021.0 984.2
штиль 0 16 км ясно +8.3 +1.1 60 +8 +8 1021.9 984.8
штиль 0 16 км ясно +7.2 +1.7 68 +7 +7 1021.8 984.8
штиль 0 16 км ясно +6.1 +1.7 73 +5 +5 1022.0 985.1
Местоположение метеостанции DeKalb Peachtree Airport: широта 33.8783 долгота -84.2981 высота над уровнем моря 305 м.
В архиве по умолчанию представлена погода в Атланте за последние 1-2 суток. Обновление информации о фактической погоде в базе происходит ежечасно! Архивные данные за месяц целиком и за предыдущие месяцы Вы можете получить, выбрав интересующий диапазон дат из раскрывающегося списка и нажав кнопку "Ввод!".
Внимание! Архив погоды МЕТАР в базе сайта по станциям, не включенным в климатический монитор, хранится не более 60 дней. Нет смысла пытаться выбрать более раннюю дату.
*Определитесь, кто Вы:
Внимание! Время в таблицах - местное (без учета летнего времени). Для получения всемирного времени необходимо вычесть поправку, которая равна -5 ч.
Смотрите также архив погоды в соседних городах и на ближайших метеорологических станциях:
Партнеры нашего сайта:      
Пояснения к столбцам:
  • Ветер - указаны скорость ветра в м/с - средняя за 10 мин, порывы в срок и между сроками (в фигурных скобках) и направление, откуда дует ветер: С - северный,
  • СВ - северо-восточный, В - восточный, ЮВ - юго-восточный, Ю - южный, ЮЗ - юго-западный, З - западный, СЗ - северо-западный.
  • Видимость - горизонтальная дальность видимости в метрах или километрах. При видимости от 1 до 10 км при отсутствии осадков обычно наблюдается дымка, при ухудшении видимости до 1 км и менее - туман. В сухую погоду видимость может ухудшаться дымом, пылью или мглою.
  • Явления - указаны атмосферные явления, наблюдавшиеся в срок или в последний час перед сроком; фигурными скобками обозначены явления, наблюдавшиеся между сроками (за 1-3 часа до срока); квадратными скобками обозначены град или гололедные отложения с указанием их диаметра в мм.
  • Облачность - указаны через наклонную черту общая и нижняя облачность в баллах и высота нижней границы облаков в метрах; квадратными скобками обозначены формы облаков: Ci - перистые, Cs - перисто-слоистые, Cc - перисто-кучевые, Ac - высококучевые, As - высокослоистые, Sc - слоисто-кучевые, Ns - слоисто-дождевые, Cu - кучевые, Cb - кучево-дождевые. Подробнее классификацию облаков см. в Атласе облаков (PDF).
  • T - Температура воздуха - температура, измеренная на высоте 2 м над землей.
  • Td - Температура точки росы - температура, при понижении до которой содержащийся в воздухе водяной пар достигнет насыщения.
  • f - Относительная влажность воздуха - влажноcть воздуха, измеренная на высоте 2 м над землей.
  • Te - Эффективная температура - температура, которую ощущает одетый по сезону человек в тени. Характеристика душности погоды. При расчете учитывается влияние влажности воздуха и скорости ветра на теплоощущения человека.
  • Tes - Эффективная температура на солнце - температура, которую ощущает человек, с поправкой на солнечный нагрев. Характеристика знойности погоды. Зависит от высоты солнца над горизонтом, облачности и скорости ветра. Ночью, в пасмурную погоду, а также при ветре 12 м/с и более поправка равна нулю.
  • P - Атмосферное давление - приведенное к уровню моря атмосферное давление.
  • Po - Атмосферное давление - измеренное на уровне метеостанции атмосферное давление.
  • Tmin - Минимальная температура - минимум температуры воздуха на высоте 2 м над землей.
  • Tmax - Максимальная температура - максимум температуры воздуха на высоте 2 м над землей.
  • R - Количество осадков - Количество выпавших осадков за период времени, мм. При наведении курсора мыши на число - период времени, за который выпало указанное количество осадков.
  • R24 - Количество осадков - Количество выпавших осадков за 24 часа, мм.
  • S - Снежный покров - Высота снежного покрова, см. При наведении курсора мыши на число - состояние снежного покрова и степень покрытия местности в баллах.